To NAV CANADA Home Page Login to a new session Search on AWWS site Feedback and Comments Disclaimer Vers la page française équivalente Tips FAQ What's new on the site To the Forecasts and Observations / NOTAM section To "File a Flight Plan" website Publications and other links Update of the User's profile FIC Telephone Numbers My Weather Data Folder Route Weather Data Regional Weather Data Local Weather Data To the Forecasts and Observations / NOTAM section
Request Generated 08/22/2017 at 03:26:12 UTC . Weather information available at that time is displayed.

METAR/TAF

PAULATUK/PAULATUK (NORA ALIQATCHIALUK RUBEN)/NT    

LWIS CYPC 220300Z AUTO 07004KT 05/05 A3001=
LWIS CYPC 220200Z AUTO 07006KT 05/05 A3003=
LWIS CYPC 220100Z AUTO 04004KT 05/04 A3004=

*** REMARK        : Forecast period has ended; this was the last TAF issued
*** REMARQUE : La période de prévision est échue; ceci était le dernier TAF qui a été émis
TAF CYPC 211902Z 2119/2123 32005KT 5SM BR OVC003 TEMPO 2119/2123 P6SM
NSW SCT003 OVC008
RMK NXT FCST WILL BE ISSUED AT 221445Z=
Your time UTC time
Weather data provided by Environment Canada and NAV CANADA